STARLINK-35335, 66180

Orbit data source: Space-Track

STARLINK-35335, 66180 is a payload satellite owned by SpaceX/Seattle (US) in LEO that was launched on Sun, 26 Oct 2025 UTC via an FALCON 9 launch vehicle from the Air Force Eastern Test Range (AFETR). Payload-class satellites include a variety of spacecraft equipped with specific instruments for various scientific and technological missions. These include communications satellites like Starlink; space stations such as the ISS; scientific satellites like the Hubble; Earth observation satellites from companies like Planet Labs, Umbra, and HawkEye 360; GPS; miniature CubeSats for education and research; and military/defense satellites.

Loading next visibility...
Identifier
66180, 2025-243D
Orbit
LEO
Country
Flag of USUS
Related business
Manufacturer
SpaceX/Seattle
Mission
Operational Commercial Communications
Bus & Motor
STARLINK V2MO, Unknown motor
Mass
575 kg wet, ~530 kg dry
Launch date (UTC)
2025-10-26 (8 months ago)
Launch vehicle
FALCON 9
Launch site
Air Force Eastern Test Range (AFETR)
Object type
Payload
Rocket body
Debris
Shape & HBR
Box + 2 Pan, 17.7 m
Radar Cross Section
36.964 m², Large (>1 m²)

Expand to show TLE details & history
Last TLE update: 1 day ago

TLE from 1 day ago
0 STARLINK-35335
1 66180U 25243D   26170.59603710  .00013142  00000-0  45463-3 0  9990
2 66180  53.1585 132.0807 0000520  87.8869 272.2191 15.30229214 36253
Epoch: 2026-06-19T14:18Z
TLE epoch observation values (Epoch: 2026-06-19T14:18:17.605Z)
Latitude
-0.00004°
Longitude
9.68457°
Altitude
476.014 km
Speed
7.629 km/s
True Right ascension
08h 48m 19s
True Declination
0° 00' 00"
Sunlit
Object was in daylight at epoch
Visualization orbit readout
Latitude
Unknown
Longitude
Unknown
Altitude
Unknown
Speed
Unknown
Apparent Right ascension
Unknown
Apparent Declination
Unknown
Sunlit
N/A
Visualization observer readout
Local Sidereal Time
08:42:43
Azimuth
Unknown
Elevation
Unknown
Doppler factor
Unknown
Orbital elements
Apogee altitude
475.741 km
Perigee altitude
475.028 km
Semi-major axis
6,853.522 km
Eccentricity
0.00005
Inclination
53.1585°
RAAN
132.0807°
Arg. of periapsis
87.8869°
True anomaly
272.21315°
Mean anomaly
272.2191°
Eccentric anomaly
272.21612°
Mean motion
3.82536 °/min
Orbital period
94.11 mins
BSTAR
0.00045463
Loading maneuver chart data...
Computing Atmospheric mass density...
Loading historical data...
Loading historical data...
Loading historical data...
Loading historical data...
Loading historical data...
Loading historical data...
Loading historical data...

Documentation

Showing up to 5 results
|